Location: Bullenkuhlen
(53.7689°N, 9.7495°E)
Time: 16:17:01
(UTC+00:00)

Cosmos 2322 Rocket - Pass Details

Date: 09 April 2020
Orbit: 834 x 849 km, 71.0° (Epoch: 02 June)

Event Time Altitude Azimuth Distance (km) Brightness Sun altitude
Rises 23:17:22 0° 324° (NW) 3,406 6.2 -28.2°
Reaches altitude 10° 23:19:57 10° 317° (NW) 2,465 5.2 -28.2°
Enters shadow 23:24:15 36° 272° (W) 1,308 3.1 -28.2°
